CZ-4B DEB (48622 NORAD) Tracking and Keplerian Element Data

This shows tracking and keplerian element data for the satellite.

Feedback or suggestion? Click here.




ElementValue
Catalog48622
NameCZ-4B DEB
Epoch Orbit399
Epoch Day167.99353168
Epoch Year2021
RAAN170.7101
Inclination65.8972
Eccentricity0.0017811
Argument of Perigee46.4381
Mean Anonmoly313.8189
Mean Motion13.86756765
Decay Rate-5.2E-07
L11 48622U 21043B 21167.99353168 -.00000052 00000-0 25863-4 0 9999
L22 48622 65.8972 170.7101 0017811 46.4381 313.8189 13.86756765 3990

Live tracking and technical data element details for CZ-4B DEB (NORAD 48622). CZ-4B DEB can be tracked NOW for your location showing map with azimuth and elevation plus other details from your city location.

Track the satellite on the map from your city or location and see movement details for azimuth, elevation, latitude, longitude, range, height, and movement on the map or in text.







IsCatalogInMostPopularTable: catalog: 48622, numindb: 20
Update: records affected: 1



GetName: 48622 CZ-4B DEB

Hit Count: updated at: Tue, 03 Aug 2021 21:23:09 GMT